| time (UTC) | temp C | wind direction | speed KPH | gust KPH | rain 1hr cm | rain 24hr cm | rain mn cm | humidity % | barometer mb |
| 20260507185907 | -17 | 293 | 9.7 | 17.7 | 0.00 | 0.00 | 0.00 | 1010.5 | |
| 20260507184728 | -17 | 338 | 8.0 | 14.5 | 0.00 | 0.00 | 0.00 | 1010.2 | |
| 20260507183551 | -17 | 338 | 9.7 | 14.5 | 0.00 | 0.00 | 0.00 | 1009.9 | |
| 20260507182413 | -17 | 338 | 8.0 | 12.9 | 0.00 | 0.00 | 0.00 | 1009.5 | |
| 20260507181235 | -17 | 338 | 6.4 | 11.3 | 0.00 | 0.00 | 0.00 | 1009.4 | |
| 20260507180057 | -17 | 315 | 6.4 | 11.3 | 0.00 | 0.00 | 0.00 | 1009.0 | |
| 20260507174913 | -17 | 0 | 3.2 | 12.9 | 0.00 | 0.00 | 0.00 | 1008.2 | |
| 20260507173736 | -17 | 338 | 3.2 | 11.3 | 0.00 | 0.00 | 0.00 | 1008.5 | |
| 20260507172557 | -17 | 315 | 4.8 | 12.9 | 0.00 | 0.00 | 0.00 | 1008.2 | |
| 20260507171419 | -17 | 270 | 6.4 | 9.7 | 0.00 | 0.00 | 0.00 | 1007.6 | |
| 20260507170241 | -17 | 293 | 3.2 | 11.3 | 0.00 | 0.00 | 0.00 | 1007.3 | |
| 20260507165103 | -17 | 293 | 6.4 | 14.5 | 0.00 | 0.00 | 0.00 | 1007.9 | |
| 20260507163925 | -17 | 338 | 8.0 | 16.1 | 0.00 | 0.00 | 0.00 | 1008.4 | |
| 20260507162742 | -17 | 293 | 8.0 | 17.7 | 0.00 | 0.00 | 0.00 | 1008.3 | |
| 20260507161604 | -17 | 270 | 9.7 | 25.7 | 0.00 | 0.00 | 0.00 | 1008.2 | |
| 20260507160428 | -17 | 338 | 6.4 | 16.1 | 0.00 | 0.00 | 0.00 | 1008.1 | |
| 20260507155250 | -17 | 338 | 6.4 | 17.7 | 0.00 | 0.00 | 0.00 | 1008.0 | |
| 20260507154111 | -17 | 270 | 11.3 | 17.7 | 0.00 | 0.00 | 0.00 | 1007.9 | |
| 20260507152933 | -17 | 338 | 12.9 | 16.1 | 0.00 | 0.00 | 0.00 | 1008.0 | |
| 20260507151757 | -17 | 293 | 9.7 | 12.9 | 0.00 | 0.00 | 0.00 | 1008.2 | |
| 20260507150619 | -17 | 338 | 6.4 | 24.1 | 0.00 | 0.00 | 0.00 | 1008.1 | |
| 20260507145440 | -17 | 0 | 14.5 | 20.9 | 0.00 | 0.00 | 0.00 | 1007.7 | |
| 20260507144302 | -17 | 293 | 11.3 | 20.9 | 0.00 | 0.00 | 0.00 | 1007.5 | |
| 20260507143125 | -17 | 293 | 9.7 | 16.1 | 0.00 | 0.00 | 0.00 | 1007.8 | |
| 20260507141946 | -17 | 293 | 8.0 | 17.7 | 0.00 | 0.00 | 0.00 | 1007.7 | |
| 20260507140809 | -17 | 293 | 8.0 | 20.9 | 0.00 | 0.00 | 0.00 | 1007.9 | |
| 20260507135630 | -17 | 0 | 25.7 | 27.4 | 0.00 | 0.00 | 0.00 | 1007.8 | |
| 20260507134454 | -17 | 0 | 4.8 | 19.3 | 0.00 | 0.00 | 0.00 | 1007.8 | |
| 20260507133315 | -17 | 338 | 6.4 | 16.1 | 0.00 | 0.00 | 0.00 | 1007.8 | |
| 20260507132137 | -17 | 315 | 9.7 | 20.9 | 0.00 | 0.00 | 0.00 | 1007.9 | |
| 20260507130958 | -17 | 315 | 6.4 | 17.7 | 0.00 | 0.00 | 0.00 | 1007.9 | |
| 20260507125820 | -17 | 270 | 3.2 | 19.3 | 0.00 | 0.00 | 0.00 | 1007.7 | |
| 20260507124643 | -17 | 293 | 4.8 | 19.3 | 0.00 | 0.00 | 0.00 | 1007.5 | |
| 20260507123504 | -17 | 225 | 11.3 | 19.3 | 0.00 | 0.00 | 0.00 | 1007.6 | |
| 20260507122325 | -17 | 315 | 8.0 | 17.7 | 0.00 | 0.00 | 0.00 | 1007.6 | |
| 20260507121148 | -17 | 0 | 14.5 | 16.1 | 0.00 | 0.00 | 0.00 | 1007.3 | |
| 20260507120010 | -17 | 338 | 4.8 | 20.9 | 0.00 | 0.00 | 0.00 | 1007.3 | |
| 20260507114833 | -17 | 90 | 1.6 | 16.1 | 0.00 | 0.00 | 0.00 | 1007.3 | |
| 20260507113654 | -17 | 270 | 16.1 | 19.3 | 0.00 | 0.00 | 0.00 | 1007.5 | |
| 20260507112517 | -17 | 225 | 8.0 | 14.5 | 0.00 | 0.00 | 0.00 | 1007.3 | |
| 20260507111338 | -17 | 293 | 4.8 | 16.1 | 0.00 | 0.00 | 0.00 | 1007.8 | |
| 20260507110200 | -17 | 270 | 3.2 | 24.1 | 0.00 | 0.00 | 0.00 | 1007.8 | |
| 20260507105023 | -17 | 293 | 9.7 | 14.5 | 0.00 | 0.00 | 0.00 | 1007.6 | |
| 20260507103844 | -17 | 338 | 6.4 | 16.1 | 0.00 | 0.00 | 0.00 | 1007.5 | |
| 20260507102707 | -17 | 248 | 12.9 | 17.7 | 0.00 | 0.00 | 0.00 | 1007.5 | |
| 20260507101529 | -17 | 0 | 11.3 | 14.5 | 0.00 | 0.00 | 0.00 | 1007.5 | |
| 20260507100351 | -17 | 270 | 9.7 | 16.1 | 0.00 | 0.00 | 0.00 | 1007.8 | |
| 20260507095213 | -17 | 270 | 11.3 | 17.7 | 0.00 | 0.00 | 0.00 | 1007.7 | |
| 20260507094034 | -17 | 338 | 12.9 | 17.7 | 0.00 | 0.00 | 0.00 | 1007.8 | |
| 20260507092856 | -17 | 270 | 8.0 | 17.7 | 0.00 | 0.00 | 0.00 | 1007.5 | |
| 20260507091717 | -17 | 293 | 4.8 | 12.9 | 0.00 | 0.00 | 0.00 | 1007.9 | |
| 20260507090541 | -17 | 270 | 11.3 | 14.5 | 0.00 | 0.00 | 0.00 | 1007.7 | |
| 20260507085403 | -17 | 270 | 6.4 | 14.5 | 0.00 | 0.00 | 0.00 | 1008.0 | |
| 20260507084225 | -17 | 293 | 4.8 | 19.3 | 0.00 | 0.00 | 0.00 | 1008.0 | |
| 20260507083046 | -17 | 338 | 4.8 | 19.3 | 0.00 | 0.00 | 0.00 | 1007.8 | |
| 20260507081908 | -17 | 315 | 8.0 | 12.9 | 0.00 | 0.00 | 0.00 | 1007.8 | |
| 20260507080731 | -17 | 338 | 6.4 | 12.9 | 0.00 | 0.00 | 0.00 | 1007.7 | |
| 20260507075553 | -17 | 315 | 11.3 | 14.5 | 0.00 | 0.00 | 0.00 | 1007.8 | |
| 20260507074414 | -17 | 338 | 8.0 | 19.3 | 0.00 | 0.00 | 0.00 | 1007.7 | |
| 20260507073235 | -17 | 270 | 12.9 | 20.9 | 0.00 | 0.00 | 0.00 | 1007.4 | |
| 20260507072057 | -17 | 270 | 9.7 | 17.7 | 0.00 | 0.00 | 0.00 | 1007.7 | |
| 20260507070914 | -17 | 293 | 8.0 | 19.3 | 0.00 | 0.00 | 0.00 | 1007.5 | |
| 20260507065736 | -17 | 293 | 8.0 | 22.5 | 0.00 | 0.00 | 0.00 | 1007.6 | |
| 20260507064557 | -17 | 338 | 9.7 | 17.7 | 0.00 | 0.00 | 0.00 | 1007.7 | |
| 20260507063415 | -17 | 293 | 9.7 | 24.1 | 0.00 | 0.00 | 0.00 | 1007.6 | |
| 20260507062236 | -17 | 225 | 9.7 | 19.3 | 0.00 | 0.00 | 0.00 | 1007.2 | |
| 20260507061058 | -17 | 0 | 14.5 | 17.7 | 0.00 | 0.00 | 0.00 | 1007.1 | |
| 20260507055921 | -17 | 338 | 3.2 | 11.3 | 0.00 | 0.00 | 0.00 | 1007.1 | |
| 20260507054743 | -17 | 293 | 4.8 | 9.7 | 0.00 | 0.00 | 0.00 | 1007.2 | |
| 20260507053605 | -17 | 293 | 6.4 | 11.3 | 0.00 | 0.00 | 0.00 | 1007.1 | |
| 20260507052426 | -17 | 293 | 14.5 | 16.1 | 0.00 | 0.00 | 0.00 | 1007.1 | |
| 20260507051247 | -17 | 293 | 4.8 | 16.1 | 0.00 | 0.00 | 0.00 | 1006.8 | |
| 20260507050109 | -17 | 225 | 8.0 | 14.5 | 0.00 | 0.00 | 0.00 | 1006.8 | |
| 20260507044930 | -17 | 315 | 6.4 | 16.1 | 0.00 | 0.00 | 0.00 | 1006.6 | |
| 20260507043753 | -17 | 225 | 3.2 | 9.7 | 0.00 | 0.00 | 0.00 | 1006.6 | |
| 20260507042615 | -17 | 315 | 4.8 | 8.0 | 0.00 | 0.00 | 0.00 | 1006.5 | |
| 20260507041435 | -17 | 225 | 1.6 | 4.8 | 0.00 | 0.00 | 0.00 | 1006.3 | |
| 20260507040256 | -17 | 225 | 1.6 | 3.2 | 0.00 | 0.00 | 0.00 | 1006.2 | |
| 20260507035116 | -17 | 270 | 3.2 | 6.4 | 0.00 | 0.00 | 0.00 | 1006.2 | |
| 20260507033935 | -17 | 293 | 1.6 | 6.4 | 0.00 | 0.00 | 0.00 | 1006.0 | |
| 20260507032755 | -17 | 270 | 4.8 | 4.8 | 0.00 | 0.00 | 0.00 | 1006.0 | |
| 20260507031616 | -17 | 270 | 3.2 | 3.2 | 0.00 | 0.00 | 0.00 | 1006.1 | |
| 20260507030435 | -17 | 338 | 0.0 | 4.8 | 0.00 | 0.00 | 0.00 | 1006.0 | |
| 20260507025254 | -17 | 293 | 1.6 | 3.2 | 0.00 | 0.00 | 0.00 | 1005.9 | |
| 20260507024114 | -17 | 270 | 1.6 | 3.2 | 0.00 | 0.00 | 0.00 | 1005.8 | |
| 20260507022935 | -17 | 293 | 1.6 | 4.8 | 0.00 | 0.00 | 0.00 | 1005.6 | |
| 20260507021752 | -17 | 0 | 1.6 | 4.8 | 0.00 | 0.00 | 0.00 | 1005.7 | |
| 20260507020613 | -17 | 338 | 4.8 | 4.8 | 0.00 | 0.00 | 0.00 | 1005.7 | |
| 20260507015434 | -17 | 315 | 1.6 | 6.4 | 0.00 | 0.00 | 0.00 | 1005.5 | |
| 20260507014253 | -17 | 270 | 3.2 | 4.8 | 0.00 | 0.00 | 0.00 | 1005.1 | |
| 20260507013113 | -17 | 293 | 3.2 | 4.8 | 0.00 | 0.00 | 0.00 | 1005.0 | |
| 20260507011933 | -17 | 293 | 1.6 | 6.4 | 0.00 | 0.00 | 0.00 | 1005.2 | |
| 20260507010752 | -17 | 315 | 4.8 | 11.3 | 0.00 | 0.00 | 0.00 | 1005.2 | |
| 20260507005612 | -17 | 293 | 6.4 | 14.5 | 0.00 | 0.00 | 0.00 | 1005.0 | |
| 20260507004432 | -17 | 338 | 8.0 | 12.9 | 0.00 | 0.00 | 0.00 | 1004.9 | |
| 20260507003251 | -17 | 315 | 6.4 | 9.7 | 0.00 | 0.00 | 0.00 | 1004.9 | |
| 20260507002109 | -17 | 270 | 6.4 | 9.7 | 0.00 | 0.00 | 0.00 | 1004.8 | |
| 20260507000928 | -17 | 270 | 3.2 | 9.7 | 0.00 | 0.00 | 0.00 | 1004.6 | |
| 20260506235746 | -17 | 0 | 8.0 | 11.3 | 0.00 | 0.00 | 0.00 | 1004.4 | |
| 20260506234605 | -17 | 338 | 8.0 | 12.9 | 0.00 | 0.00 | 0.00 | 1004.0 | |
| 20260506233424 | -17 | 293 | 3.2 | 19.3 | 0.00 | 0.00 | 0.00 | 1003.6 | |
| 20260506232244 | -17 | 270 | 11.3 | 19.3 | 0.00 | 0.00 | 0.00 | 1003.4 | |
| 20260506231103 | -17 | 0 | 11.3 | 22.5 | 0.00 | 0.00 | 0.00 | 1003.3 | |
| 20260506225920 | -17 | 293 | 11.3 | 17.7 | 0.00 | 0.00 | 0.00 | 1003.4 | |
| 20260506224740 | -17 | 270 | 14.5 | 20.9 | 0.00 | 0.00 | 0.00 | 1003.4 | |
| 20260506223559 | -17 | 0 | 14.5 | 30.6 | 0.00 | 0.00 | 0.00 | 1003.1 | |
| 20260506222420 | -17 | 293 | 32.2 | 40.2 | 0.00 | 0.00 | 0.00 | 1003.0 | |
| 20260506221240 | -17 | 293 | 16.1 | 24.1 | 0.00 | 0.00 | 0.00 | 1002.9 | |
| 20260506220059 | -17 | 0 | 14.5 | 24.1 | 0.00 | 0.00 | 0.00 | 1002.9 | |
| 20260506214917 | -17 | 0 | 12.9 | 22.5 | 0.00 | 0.00 | 0.00 | 1002.6 | |
| 20260506213736 | -17 | 338 | 4.8 | 11.3 | 0.00 | 0.00 | 0.00 | 1001.6 | |
| 20260506212556 | -17 | 338 | 6.4 | 14.5 | 0.00 | 0.00 | 0.00 | 1001.3 | |
| 20260506211416 | -17 | 135 | 12.9 | 12.9 | 0.00 | 0.00 | 0.00 | 1001.1 | |
| 20260506210236 | -17 | 135 | 11.3 | 14.5 | 0.00 | 0.00 | 0.00 | 1000.8 | |
| 20260506205056 | -17 | 135 | 8.0 | 9.7 | 0.00 | 0.00 | 0.00 | 1000.9 | |
| 20260506203915 | -17 | 135 | 8.0 | 9.7 | 0.00 | 0.00 | 0.00 | 1000.9 | |
| 20260506202735 | -17 | 135 | 4.8 | 8.0 | 0.00 | 0.00 | 0.00 | 1000.9 | |
| 20260506201552 | -17 | 135 | 1.6 | 9.7 | 0.00 | 0.00 | 0.00 | 1001.0 | |
| 20260506200410 | -17 | 315 | 6.4 | 11.3 | 0.00 | 0.00 | 0.00 | 1001.1 | |
| 20260506195231 | -17 | 315 | 9.7 | 14.5 | 0.00 | 0.00 | 0.00 | 1001.2 | |
| 20260506194051 | -17 | 270 | 9.7 | 17.7 | 0.00 | 0.00 | 0.00 | 1001.1 | |
| 20260506192910 | -17 | 270 | 11.3 | 14.5 | 0.00 | 0.00 | 0.00 | 1000.9 | |
| 20260506191727 | -17 | 135 | 6.4 | 11.3 | 0.00 | 0.00 | 0.00 | 1000.5 | |
| 20260506190547 | -17 | 68 | 6.4 | 14.5 | 0.00 | 0.00 | 0.00 | 1000.2 |